EW2190 Narragansett RI US current weather conditions

sailwx.info

Wind from 190 at 0 knots gusting 5

Air temperature 22.2° C
Dewpoint 22.1° C

Last reported at 2020-Jul-11 07:01 UTC.
Time now 2020-Jul-11 07:44 UTC

Location: N 41°27' W 071°27'.
View on Google Maps.

See reports from other nearby stations

  
Tides and Currents Weather Stations Pressure Air Temp Water Temp Dewpoint Dewpoint Depression Visibility Wind Speed Wind Dir Waves Ship Positions
date/time (UTC)wind fromknots sea level pressurealtimeterstation pressurevisibilityair tempwater tempwave heightnotes
2020-Jul-11 07:01 190 0 gusting 5 22.2
2020-Jul-11 06:46 190 22.8
2020-Jul-11 06:31 190 22.2
2020-Jul-11 06:17 190 22.8
2020-Jul-11 06:01 190 0 gusting 5 22.8
2020-Jul-11 05:46 190 22.8
2020-Jul-11 05:31 190 0 gusting 5 22.8
2020-Jul-11 05:16 190 1 gusting 4 22.2
2020-Jul-11 04:45 190 0 gusting 3 22.2
2020-Jul-11 04:30 190 22.2
2020-Jul-11 04:15 190 0 gusting 3 22.2
2020-Jul-11 04:00 190 0 gusting 4 22.2
2020-Jul-11 03:45 190 0 gusting 3 22.8
2020-Jul-11 03:30 190 22.2
2020-Jul-11 03:15 190 0 gusting 3 22.2
2020-Jul-11 03:00 190 22.2
2020-Jul-11 02:45 190 0 gusting 9 22.2
2020-Jul-11 02:30 190 4 gusting 13 22.2
2020-Jul-11 02:15 190 5 gusting 11 22.2
2020-Jul-11 01:45 190 6 gusting 11 22.2
2020-Jul-11 01:30 190 4 gusting 11 22.2
2020-Jul-11 01:16 190 4 gusting 8 22.2
2020-Jul-11 01:02 190 4 gusting 7 22.2
2020-Jul-11 00:47 190 3 gusting 9 22.2
2020-Jul-11 00:31 190 4 gusting 8 22.2
2020-Jul-11 00:18 190 2 gusting 9 22.2
2020-Jul-11 00:01 190 3 gusting 13 22.2
2020-Jul-10 23:46 190 4 gusting 13 22.8
2020-Jul-10 23:31 190 3 gusting 14 22.8
2020-Jul-10 23:16 190 6 gusting 12 22.8
2020-Jul-10 23:01 190 3 gusting 9 23.3
2020-Jul-10 22:46 190 5 gusting 10 23.3
2020-Jul-10 22:31 190 3 gusting 8 23.3
2020-Jul-10 22:16 190 2 gusting 9 23.3
2020-Jul-10 22:01 190 1 gusting 6 23.3
2020-Jul-10 21:47 190 3 gusting 6 23.3
2020-Jul-10 21:31 190 1 gusting 7 23.3
2020-Jul-10 21:16 190 3 gusting 8 23.9
2020-Jul-10 21:01 190 1 gusting 6 23.3
2020-Jul-10 20:45 190 0 gusting 5 23.3
2020-Jul-10 20:30 190 1 gusting 6 22.8
2020-Jul-10 20:16 190 0 gusting 6 23.3
2020-Jul-10 20:00 190 3 gusting 10 23.9
2020-Jul-10 19:46 190 3 gusting 7 24.4
2020-Jul-10 19:30 190 3 gusting 7 23.9
2020-Jul-10 19:16 190 3 gusting 8 23.9
2020-Jul-10 19:00 190 23.3
2020-Jul-10 18:45 190 2 gusting 6 23.3
2020-Jul-10 18:30 190 1 gusting 6 23.3
2020-Jul-10 18:15 190 2 gusting 6 23.3
2020-Jul-10 17:45 190 1 gusting 6 23.9
2020-Jul-10 17:30 190 2 gusting 6 23.9
2020-Jul-10 17:15 190 2 gusting 7 23.9
2020-Jul-10 17:00 190 1 gusting 6 23.3
2020-Jul-10 16:45 190 1 gusting 6 22.8
2020-Jul-10 16:30 190 1 gusting 7 22.8
2020-Jul-10 16:15 190 1 gusting 7 23.3
2020-Jul-10 16:00 190 1 gusting 6 23.3
2020-Jul-10 15:46 190 3 gusting 6 23.3
2020-Jul-10 15:31 190 0 gusting 5 22.8
2020-Jul-10 15:16 190 0 gusting 6 22.8
2020-Jul-10 15:01 190 1 gusting 6 22.8
2020-Jul-10 14:47 190 1 gusting 4 22.8
2020-Jul-10 14:33 190 1 gusting 6 23.3
2020-Jul-10 14:16 190 1 gusting 7 23.9
2020-Jul-10 14:01 190 3 gusting 6 23.3
2020-Jul-10 13:46 190 0 gusting 6 23.3
2020-Jul-10 13:31 190 2 gusting 5 23.3
2020-Jul-10 13:16 190 23.3
2020-Jul-10 13:00 190 23.3
2020-Jul-10 12:46 190 22.8
2020-Jul-10 12:31 190 1 gusting 5 22.8
2020-Jul-10 12:15 190 1 gusting 4 22.2
2020-Jul-10 12:00 190 1 gusting 4 22.2
2020-Jul-10 11:45 190 0 gusting 3 22.2
2020-Jul-10 11:30 190 1 gusting 3 22.2
2020-Jul-10 11:15 190 0 gusting 3 22.2
2020-Jul-10 11:00 190 0 gusting 3 22.2
2020-Jul-10 10:46 190 22.2
2020-Jul-10 10:30 190 0 gusting 3 22.2
2020-Jul-10 10:15 190 22.2
2020-Jul-10 10:00 190 22.2
2020-Jul-10 09:45 190 22.2
2020-Jul-10 09:32 190 22.2
2020-Jul-10 09:16 190 22.2
2020-Jul-10 09:01 190 22.2
2020-Jul-10 08:46 190 22.2
2020-Jul-10 08:31 190 22.2
2020-Jul-10 08:16 190 22.2
2020-Jul-10 08:01 190 22.2
2020-Jul-10 07:45 190 21.7
2020-Jul-10 07:30 190 21.7
2020-Jul-10 07:15 190 21.7
2020-Jul-10 07:00 190 21.7
2020-Jul-10 06:45 190 21.7
2020-Jul-10 06:31 190 21.1
2020-Jul-10 06:15 190 21.1
2020-Jul-10 06:00 190 20.6
2020-Jul-10 05:45 190 20.6
2020-Jul-10 05:30 190 20.6
2020-Jul-10 05:15 190 20.6
2020-Jul-10 05:00 190 20.6
2020-Jul-10 04:45 190 20.6
2020-Jul-10 04:30 190 20.6
2020-Jul-10 04:15 190 21.1
2020-Jul-10 04:02 190 21.1
2020-Jul-10 03:50 190 21.1
2020-Jul-10 03:45 190 21.1
2020-Jul-10 03:31 190 21.7
2020-Jul-10 03:16 190 21.7
2020-Jul-10 03:01 190 21.7
2020-Jul-10 02:46 190 22.2
2020-Jul-10 02:31 190 22.2
2020-Jul-10 02:17 190 22.8
2020-Jul-10 02:01 190 22.8
2020-Jul-10 01:46 190 22.8
2020-Jul-10 01:31 190 23.3
2020-Jul-10 01:16 190 23.3
2020-Jul-10 01:01 190 23.3
2020-Jul-10 00:46 190 23.9
2020-Jul-10 00:30 190 23.9
2020-Jul-10 00:16 190 24.4
2020-Jul-10 00:01 190 25.6
2020-Jul-09 23:47 190 25.6
2020-Jul-09 23:31 190 0 gusting 5 26.1
2020-Jul-09 23:16 190 1 gusting 7 26.1
2020-Jul-09 23:00 190 1 gusting 6 26.1
2020-Jul-09 22:46 190 6 gusting 11 26.1
2020-Jul-09 22:31 190 6 gusting 11 26.1
2020-Jul-09 22:16 190 6 gusting 9 26.1
2020-Jul-09 22:00 190 5 gusting 9 27.2
2020-Jul-09 21:46 190 3 gusting 8 27.2
2020-Jul-09 21:30 190 3 gusting 9 27.2
2020-Jul-09 21:16 190 2 gusting 10 27.2
2020-Jul-09 21:01 190 3 gusting 8 27.8
2020-Jul-09 20:46 190 4 gusting 7 27.8
2020-Jul-09 20:31 190 3 gusting 10 27.8
2020-Jul-09 20:15 190 0 gusting 10 27.8
2020-Jul-09 20:00 190 6 gusting 11 27.8
2020-Jul-09 19:45 190 2 gusting 6 28.3
2020-Jul-09 19:30 190 1 gusting 10 27.8
2020-Jul-09 19:15 190 7 gusting 12 27.2
2020-Jul-09 19:01 190 6 gusting 10 27.8
2020-Jul-09 18:45 190 1 gusting 11 28.3
2020-Jul-09 18:30 190 28.3
2020-Jul-09 18:15 190 5 gusting 11 27.2
2020-Jul-09 18:00 190 3 gusting 7 27.2
2020-Jul-09 17:46 190 3 gusting 10 27.2
2020-Jul-09 17:30 190 3 gusting 7 27.2
2020-Jul-09 17:15 190 4 gusting 11 26.7
2020-Jul-09 17:00 190 6 gusting 11 26.7
2020-Jul-09 16:45 190 1 gusting 8 26.1
2020-Jul-09 16:30 190 7 gusting 10 25.6
2020-Jul-09 16:15 190 6 gusting 11 25.0
2020-Jul-09 16:00 190 3 gusting 12 25.0
2020-Jul-09 15:45 190 25.0
2020-Jul-09 15:30 190 2 gusting 7 25.6
2020-Jul-09 15:15 190 5 gusting 9 25.6
2020-Jul-09 15:00 190 3 gusting 9 25.0
2020-Jul-09 14:45 190 3 gusting 6 25.0
2020-Jul-09 14:30 190 2 gusting 6 25.0
2020-Jul-09 14:15 190 3 gusting 7 24.4
2020-Jul-09 13:47 190 2 gusting 6 24.4
2020-Jul-09 13:31 190 0 gusting 4 24.4
2020-Jul-09 13:16 190 4 gusting 7 24.4
2020-Jul-09 13:01 190 1 gusting 6 23.9
2020-Jul-09 12:46 190 2 gusting 6 23.3
2020-Jul-09 12:31 190 1 gusting 6 23.3
2020-Jul-09 12:16 190 2 gusting 6 23.3
2020-Jul-09 12:01 190 1 gusting 6 22.8
2020-Jul-09 11:47 190 2 gusting 6 22.8
2020-Jul-09 11:31 190 4 gusting 8 22.8
2020-Jul-09 11:16 190 0 gusting 3 22.8
2020-Jul-09 11:00 190 1 gusting 5 22.8
2020-Jul-09 10:46 190 0 gusting 5 22.8
2020-Jul-09 10:31 190 1 gusting 5 22.8
2020-Jul-09 10:15 190 1 gusting 4 22.8
2020-Jul-09 10:01 190 22.8
2020-Jul-09 09:46 190 0 gusting 3 22.8
2020-Jul-09 09:30 190 22.8
2020-Jul-09 09:15 190 2 gusting 6 22.8
2020-Jul-09 09:00 190 22.8
2020-Jul-09 08:45 190 0 gusting 4 23.3
2020-Jul-09 08:30 190 2 gusting 6 23.3
2020-Jul-09 08:15 190 4 gusting 6 23.3
2020-Jul-09 08:00 190 3 gusting 6 23.3
2020-Jul-09 07:45 190 2 gusting 7 23.3
2020-Jul-09 07:30 190 2 gusting 7 23.3
2020-Jul-09 07:15 190 3 gusting 6 23.3
2020-Jul-09 07:00 190 4 gusting 7 23.3